Location: Northam
(31.6525°S, 116.6655°E)
Time: 15:22:33
(UTC+08:00)

Envisat - Visible Passes

Search period start: 12 August 2020 00:00
Search period end: 22 August 2020 00:00
Orbit: 764 x 766 km, 98.1° (Epoch: 11 August)

Date Brightness Start Highest point End Pass type
(mag) Time Alt. Az. Time Alt. Az. Time Alt. Az.
12 Aug 2.9 05:45:06 10° N 05:50:11 82° WNW 05:55:21 10° SSW visible
12 Aug 5.9 19:40:03 10° SSW 19:42:49 15° WSW 19:45:33 10° W visible
13 Aug 4.3 05:08:46 10° NE 05:13:31 41° ESE 05:18:19 10° S visible
13 Aug 4.7 19:01:47 10° S 19:06:23 34° WSW 19:10:56 10° NW visible
14 Aug 5.6 04:33:43 10° ENE 04:37:03 18° ESE 04:40:23 10° SSE visible
14 Aug 3.4 06:10:50 10° N 06:15:39 43° W 06:20:33 10° SSW visible
14 Aug 3.1 18:24:36 10° S 18:29:45 83° WSW 18:34:51 10° NNW visible
15 Aug 3.2 05:33:47 10° NNE 05:38:51 77° ESE 05:44:00 10° S visible
15 Aug 5.6 19:28:04 10° SSW 19:31:36 19° WSW 19:35:06 10° WNW visible
16 Aug 4.8 04:57:46 10° NE 05:02:15 32° ESE 05:06:45 10° S visible
16 Aug 4.2 18:50:14 10° S 18:55:06 44° WSW 18:59:55 10° NW visible
17 Aug 5.9 04:23:21 10° E 04:25:49 14° ESE 04:28:19 10° SE visible
17 Aug 3.1 05:59:18 10° N 06:04:17 57° W 06:09:21 10° SSW visible
17 Aug 3.0 18:13:15 10° SSE 18:18:25 76° ENE 18:23:30 10° N visible
18 Aug 3.6 05:22:33 10° NNE 05:27:33 59° ESE 05:32:35 10° S visible
18 Aug 5.3 19:16:17 10° SSW 19:20:21 24° WSW 19:24:24 10° WNW visible
19 Aug 5.2 04:46:54 10° ENE 04:50:59 25° ESE 04:55:06 10° SSE visible
19 Aug 3.7 18:38:46 10° S 18:43:48 57° WSW 18:48:47 10° NNW visible
20 Aug 6.2 04:13:56 10° ESE 04:14:38 10° ESE 04:15:20 10° SE visible
20 Aug 2.9 05:47:51 10° N 05:52:55 75° WNW 05:58:05 10° SSW visible
20 Aug 6.0 19:43:08 10° SW 19:45:30 13° WSW 19:47:52 10° W visible
21 Aug 4.1 05:11:25 10° NE 05:16:14 45° ESE 05:21:08 10° S visible
21 Aug 4.9 19:04:37 10° S 19:09:06 31° WSW 19:13:32 10° NW visible
